contact:dominique.lefevre@mio.osupytheas.fr, maurice.libes@osupytheas.fr, didier.mallarino@osupytheas.fr
Project:EMSO http://www.emso-fr.org/EMSO-France
Depth: 2436.0 m
Title:EMSO Ligure Ouest : Data MII capteur MICROCAT
DateTime_Computer,Latitude,Longitude,Temperature,Conductivity,Pressure,DateTime_Instrument
DateTime_Computer,Latitude,Longitude,degC,S m-1,dbar,DateTime_Instrument
2023-04-16T00:01:30Z,42.805,6.029,13.3021,4.60076,2470.637,2023-4-16T02:04:28Z
2023-04-16T00:04:33Z,42.805,6.029,13.3024,4.60078,2470.567,2023-4-16T02:07:31Z
2023-04-16T00:07:37Z,42.805,6.029,13.3021,4.60084,2470.614,2023-4-16T02:10:34Z
2023-04-16T00:10:40Z,42.805,6.029,13.3024,4.60082,2470.614,2023-4-16T02:13:37Z
2023-04-16T00:13:43Z,42.805,6.029,13.3019,4.60079,2470.624,2023-4-16T02:16:40Z
2023-04-16T00:16:46Z,42.805,6.029,13.3024,4.60078,2470.577,2023-4-16T02:19:43Z
2023-04-16T00:19:49Z,42.805,6.029,13.3024,4.60076,2470.6,2023-4-16T02:22:46Z
2023-04-16T00:22:52Z,42.805,6.029,13.3020,4.60076,2470.624,2023-4-16T02:25:49Z
2023-04-16T00:25:55Z,42.805,6.029,13.3021,4.60079,2470.614,2023-4-16T02:28:52Z
2023-04-16T00:28:58Z,42.805,6.029,13.3024,4.60079,2470.6,2023-4-16T02:31:55Z
2023-04-16T00:32:01Z,42.805,6.029,13.3024,4.60079,2470.646,2023-4-16T02:34:58Z
2023-04-16T00:35:04Z,42.805,6.029,13.3021,4.60079,2470.6,2023-4-16T02:38:01Z
2023-04-16T00:38:07Z,42.805,6.029,13.3024,4.60077,2470.624,2023-4-16T02:41:05Z
2023-04-16T00:41:10Z,42.805,6.029,13.3024,4.60077,2470.624,2023-4-16T02:44:08Z
2023-04-16T00:44:14Z,42.805,6.029,13.3021,4.60082,2470.637,2023-4-16T02:47:11Z
2023-04-16T00:47:17Z,42.805,6.029,13.3024,4.60084,2470.624,2023-4-16T02:50:14Z
2023-04-16T00:50:20Z,42.805,6.029,13.3023,4.60079,2470.6,2023-4-16T02:53:17Z
2023-04-16T00:53:23Z,42.805,6.029,13.3024,4.60079,2470.646,2023-4-16T02:56:20Z
2023-04-16T00:56:26Z,42.805,6.029,13.3025,4.60077,2470.6,2023-4-16T02:59:23Z
2023-04-16T00:59:29Z,42.805,6.029,13.3024,4.60078,2470.646,2023-4-16T03:02:26Z
2023-04-16T01:02:32Z,42.805,6.029,13.3023,4.60079,2470.646,2023-4-16T03:05:29Z
2023-04-16T01:05:35Z,42.805,6.029,13.3023,4.60079,2470.67,2023-4-16T03:08:32Z
2023-04-16T01:08:38Z,42.805,6.029,13.3024,4.60077,2470.624,2023-4-16T03:11:35Z
2023-04-16T01:11:41Z,42.805,6.029,13.3024,4.60075,2470.646,2023-4-16T03:14:38Z
2023-04-16T01:14:44Z,42.805,6.029,13.3028,4.60077,2470.624,2023-4-16T03:17:41Z
2023-04-16T01:17:47Z,42.805,6.029,13.3025,4.60079,2470.67,2023-4-16T03:20:45Z
2023-04-16T01:20:51Z,42.805,6.029,13.3024,4.60078,2470.684,2023-4-16T03:23:48Z
2023-04-16T01:23:54Z,42.805,6.029,13.3021,4.60079,2470.661,2023-4-16T03:26:51Z
2023-04-16T01:26:57Z,42.805,6.029,13.3023,4.60077,2470.624,2023-4-16T03:29:54Z
2023-04-16T01:30:00Z,42.805,6.029,13.3023,4.60077,2470.646,2023-4-16T03:32:57Z
2023-04-16T01:33:03Z,42.805,6.029,13.3021,4.60075,2470.646,2023-4-16T03:36:00Z
2023-04-16T01:36:06Z,42.805,6.029,13.3025,4.60075,2470.661,2023-4-16T03:39:03Z
2023-04-16T01:39:09Z,42.805,6.029,13.3025,4.60075,2470.661,2023-4-16T03:42:06Z
2023-04-16T01:42:12Z,42.805,6.029,13.3026,4.60077,2470.67,2023-4-16T03:45:09Z
2023-04-16T01:45:15Z,42.805,6.029,13.3023,4.60075,2470.646,2023-4-16T03:48:12Z
2023-04-16T01:48:18Z,42.805,6.029,13.3023,4.60079,2470.624,2023-4-16T03:51:15Z
2023-04-16T01:51:21Z,42.805,6.029,13.3026,4.60077,2470.646,2023-4-16T03:54:18Z
2023-04-16T01:54:24Z,42.805,6.029,13.3019,4.60080,2470.646,2023-4-16T03:57:22Z
2023-04-16T01:57:27Z,42.805,6.029,13.3021,4.60074,2470.656,2023-4-16T04:00:25Z
2023-04-16T02:00:31Z,42.805,6.029,13.3024,4.60075,2470.684,2023-4-16T04:03:28Z
2023-04-16T02:03:34Z,42.805,6.029,13.3025,4.60076,2470.646,2023-4-16T04:06:31Z
2023-04-16T02:06:37Z,42.805,6.029,13.3021,4.60078,2470.693,2023-4-16T04:09:34Z
2023-04-16T02:09:40Z,42.805,6.029,13.3025,4.60076,2470.67,2023-4-16T04:12:37Z
2023-04-16T02:12:43Z,42.805,6.029,13.3018,4.60080,2470.67,2023-4-16T04:15:40Z
2023-04-16T02:15:46Z,42.805,6.029,13.3022,4.60075,2470.67,2023-4-16T04:18:43Z
2023-04-16T02:18:49Z,42.805,6.029,13.3021,4.60079,2470.67,2023-4-16T04:21:46Z
2023-04-16T02:21:52Z,42.805,6.029,13.3022,4.60078,2470.717,2023-4-16T04:24:49Z
2023-04-16T02:24:55Z,42.805,6.029,13.3021,4.60079,2470.73,2023-4-16T04:27:52Z
2023-04-16T02:27:58Z,42.805,6.029,13.3026,4.60077,2470.707,2023-4-16T04:30:55Z
2023-04-16T02:31:01Z,42.805,6.029,13.3024,4.60077,2470.717,2023-4-16T04:33:59Z
2023-04-16T02:34:04Z,42.805,6.029,13.3021,4.60076,2470.693,2023-4-16T04:37:02Z
2023-04-16T02:37:08Z,42.805,6.029,13.3022,4.60076,2470.763,2023-4-16T04:40:05Z
2023-04-16T02:40:11Z,42.805,6.029,13.3025,4.60076,2470.74,2023-4-16T04:43:08Z
2023-04-16T02:43:14Z,42.805,6.029,13.3019,4.60077,2470.717,2023-4-16T04:46:11Z
2023-04-16T02:46:17Z,42.805,6.029,13.3024,4.60075,2470.67,2023-4-16T04:49:14Z
2023-04-16T02:49:20Z,42.805,6.029,13.3026,4.60078,2470.717,2023-4-16T04:52:17Z
2023-04-16T02:52:23Z,42.805,6.029,13.3023,4.60077,2470.679,2023-4-16T04:55:20Z
2023-04-16T02:55:26Z,42.805,6.029,13.3023,4.60076,2470.73,2023-4-16T04:58:23Z
2023-04-16T02:58:29Z,42.805,6.029,13.3022,4.60078,2470.717,2023-4-16T05:01:26Z
2023-04-16T03:01:32Z,42.805,6.029,13.3023,4.60078,2470.754,2023-4-16T05:04:29Z
2023-04-16T03:04:35Z,42.805,6.029,13.3025,4.60077,2470.74,2023-4-16T05:07:32Z
2023-04-16T03:07:38Z,42.805,6.029,13.3025,4.60081,2470.74,2023-4-16T05:10:35Z
2023-04-16T03:10:41Z,42.805,6.029,13.3026,4.60082,2470.73,2023-4-16T05:13:39Z
2023-04-16T03:13:44Z,42.805,6.029,13.3024,4.60081,2470.717,2023-4-16T05:16:42Z
2023-04-16T03:16:48Z,42.805,6.029,13.3027,4.60077,2470.74,2023-4-16T05:19:45Z
2023-04-16T03:19:51Z,42.805,6.029,13.3024,4.60078,2470.73,2023-4-16T05:22:48Z
2023-04-16T03:22:54Z,42.805,6.029,13.3025,4.60079,2470.74,2023-4-16T05:25:51Z
2023-04-16T03:25:57Z,42.805,6.029,13.3024,4.60079,2470.74,2023-4-16T05:28:54Z
2023-04-16T03:29:00Z,42.805,6.029,13.3024,4.60078,2470.717,2023-4-16T05:31:57Z
2023-04-16T03:32:03Z,42.805,6.029,13.3024,4.60079,2470.74,2023-4-16T05:35:00Z
2023-04-16T03:35:06Z,42.805,6.029,13.3024,4.60079,2470.74,2023-4-16T05:38:03Z
2023-04-16T03:38:09Z,42.805,6.029,13.3029,4.60081,2470.74,2023-4-16T05:41:06Z
2023-04-16T03:41:12Z,42.805,6.029,13.3024,4.60079,2470.777,2023-4-16T05:44:09Z
2023-04-16T03:44:15Z,42.805,6.029,13.3024,4.60077,2470.73,2023-4-16T05:47:12Z
2023-04-16T03:47:18Z,42.805,6.029,13.3026,4.60081,2470.74,2023-4-16T05:50:16Z
2023-04-16T03:50:21Z,42.805,6.029,13.3025,4.60080,2470.754,2023-4-16T05:53:19Z
2023-04-16T03:53:25Z,42.805,6.029,13.3024,4.60079,2470.8,2023-4-16T05:56:22Z
2023-04-16T03:56:28Z,42.805,6.029,13.3028,4.60077,2470.787,2023-4-16T05:59:25Z
2023-04-16T03:59:31Z,42.805,6.029,13.3024,4.60081,2470.777,2023-4-16T06:02:28Z
2023-04-16T04:02:34Z,42.805,6.029,13.3024,4.60079,2470.777,2023-4-16T06:05:31Z
2023-04-16T04:05:37Z,42.805,6.029,13.3024,4.60079,2470.74,2023-4-16T06:08:34Z
2023-04-16T04:08:40Z,42.805,6.029,13.3025,4.60081,2470.74,2023-4-16T06:11:37Z
2023-04-16T04:11:43Z,42.805,6.029,13.3026,4.60084,2470.763,2023-4-16T06:14:40Z
2023-04-16T04:14:46Z,42.805,6.029,13.3024,4.60078,2470.74,2023-4-16T06:17:43Z
2023-04-16T04:17:49Z,42.805,6.029,13.3027,4.60079,2470.777,2023-4-16T06:20:46Z
2023-04-16T04:20:52Z,42.805,6.029,13.3028,4.60079,2470.754,2023-4-16T06:23:49Z
2023-04-16T04:23:55Z,42.805,6.029,13.3028,4.60081,2470.777,2023-4-16T06:26:53Z
2023-04-16T04:26:58Z,42.805,6.029,13.3034,4.60087,2470.763,2023-4-16T06:29:56Z
2023-04-16T04:30:01Z,42.805,6.029,13.3026,4.60089,2470.754,2023-4-16T06:32:59Z
2023-04-16T04:33:03Z,42.805,6.029,13.3026,4.60079,2470.787,2023-4-16T06:36:01Z
2023-04-16T04:36:06Z,42.805,6.029,13.3021,4.60078,2470.754,2023-4-16T06:39:04Z
2023-04-16T04:39:10Z,42.805,6.029,13.3027,4.60078,2470.777,2023-4-16T06:42:07Z
2023-04-16T04:42:13Z,42.805,6.029,13.3025,4.60084,2470.763,2023-4-16T06:45:10Z
2023-04-16T04:45:16Z,42.805,6.029,13.3027,4.60101,2470.763,2023-4-16T06:48:13Z
2023-04-16T04:48:19Z,42.805,6.029,13.3027,4.60086,2470.8,2023-4-16T06:51:16Z
2023-04-16T04:51:22Z,42.805,6.029,13.3031,4.60080,2470.773,2023-4-16T06:54:19Z
2023-04-16T04:54:25Z,42.805,6.029,13.3026,4.60082,2470.74,2023-4-16T06:57:22Z
2023-04-16T04:57:28Z,42.805,6.029,13.3027,4.60080,2470.777,2023-4-16T07:00:25Z
2023-04-16T05:00:31Z,42.805,6.029,13.3026,4.60082,2470.74,2023-4-16T07:03:28Z
2023-04-16T05:03:34Z,42.805,6.029,13.3026,4.60079,2470.74,2023-4-16T07:06:31Z
2023-04-16T05:06:37Z,42.805,6.029,13.3024,4.60083,2470.763,2023-4-16T07:09:34Z
2023-04-16T05:09:40Z,42.805,6.029,13.3030,4.60090,2470.74,2023-4-16T07:12:38Z
2023-04-16T05:12:43Z,42.805,6.029,13.3032,4.60080,2470.763,2023-4-16T07:15:41Z
2023-04-16T05:15:46Z,42.805,6.029,13.3030,4.60081,2470.777,2023-4-16T07:18:44Z
2023-04-16T05:18:50Z,42.805,6.029,13.3032,4.60083,2470.763,2023-4-16T07:21:47Z
2023-04-16T05:21:53Z,42.805,6.029,13.3029,4.60084,2470.74,2023-4-16T07:24:50Z
2023-04-16T05:24:56Z,42.805,6.029,13.3030,4.60079,2470.74,2023-4-16T07:27:53Z
2023-04-16T05:27:59Z,42.805,6.029,13.3025,4.60084,2470.763,2023-4-16T07:30:56Z
2023-04-16T05:31:02Z,42.805,6.029,13.3024,4.60081,2470.763,2023-4-16T07:33:59Z
2023-04-16T05:34:05Z,42.805,6.029,13.3024,4.60082,2470.717,2023-4-16T07:37:02Z
2023-04-16T05:37:08Z,42.805,6.029,13.3027,4.60079,2470.73,2023-4-16T07:40:05Z
2023-04-16T05:40:11Z,42.805,6.029,13.3026,4.60079,2470.777,2023-4-16T07:43:08Z
2023-04-16T05:43:14Z,42.805,6.029,13.3022,4.60077,2470.73,2023-4-16T07:46:11Z
2023-04-16T05:46:17Z,42.805,6.029,13.3021,4.60084,2470.74,2023-4-16T07:49:15Z
2023-04-16T05:49:20Z,42.805,6.029,13.3024,4.60081,2470.777,2023-4-16T07:52:18Z
2023-04-16T05:52:23Z,42.805,6.029,13.3029,4.60084,2470.74,2023-4-16T07:55:21Z
2023-04-16T05:55:27Z,42.805,6.029,13.3027,4.60079,2470.763,2023-4-16T07:58:24Z
2023-04-16T05:58:30Z,42.805,6.029,13.3028,4.60079,2470.754,2023-4-16T08:01:27Z
2023-04-16T06:01:33Z,42.805,6.029,13.3032,4.60082,2470.717,2023-4-16T08:04:30Z
2023-04-16T06:04:36Z,42.805,6.029,13.3028,4.60079,2470.717,2023-4-16T08:07:33Z
2023-04-16T06:07:39Z,42.805,6.029,13.3024,4.60084,2470.74,2023-4-16T08:10:36Z
2023-04-16T06:10:42Z,42.805,6.029,13.3024,4.60079,2470.717,2023-4-16T08:13:39Z
2023-04-16T06:13:45Z,42.805,6.029,13.3027,4.60087,2470.74,2023-4-16T08:16:42Z
2023-04-16T06:16:48Z,42.805,6.029,13.3021,4.60079,2470.754,2023-4-16T08:19:45Z
2023-04-16T06:19:51Z,42.805,6.029,13.3025,4.60080,2470.717,2023-4-16T08:22:48Z
2023-04-16T06:22:54Z,42.805,6.029,13.3024,4.60080,2470.74,2023-4-16T08:25:51Z
2023-04-16T06:25:57Z,42.805,6.029,13.3029,4.60091,2470.74,2023-4-16T08:28:55Z
2023-04-16T06:29:00Z,42.805,6.029,13.3024,4.60087,2470.74,2023-4-16T08:31:58Z
2023-04-16T06:32:02Z,42.805,6.029,13.3031,4.60081,2470.73,2023-4-16T08:34:59Z
2023-04-16T06:35:05Z,42.805,6.029,13.3027,4.60081,2470.74,2023-4-16T08:38:02Z
2023-04-16T06:38:08Z,42.805,6.029,13.3023,4.60084,2470.74,2023-4-16T08:41:05Z
2023-04-16T06:41:11Z,42.805,6.029,13.3029,4.60092,2470.693,2023-4-16T08:44:09Z
2023-04-16T06:44:14Z,42.805,6.029,13.3026,4.60093,2470.693,2023-4-16T08:47:12Z
2023-04-16T06:47:17Z,42.805,6.029,13.3032,4.60092,2470.717,2023-4-16T08:50:15Z
2023-04-16T06:50:20Z,42.805,6.029,13.3027,4.60088,2470.73,2023-4-16T08:53:18Z
2023-04-16T06:53:24Z,42.805,6.029,13.3029,4.60088,2470.717,2023-4-16T08:56:21Z
2023-04-16T06:56:27Z,42.805,6.029,13.3026,4.60084,2470.73,2023-4-16T08:59:24Z
2023-04-16T06:59:30Z,42.805,6.029,13.3032,4.60092,2470.717,2023-4-16T09:02:27Z
2023-04-16T07:02:33Z,42.805,6.029,13.3029,4.60085,2470.717,2023-4-16T09:05:30Z
2023-04-16T07:05:36Z,42.805,6.029,13.3035,4.60089,2470.717,2023-4-16T09:08:33Z
2023-04-16T07:08:39Z,42.805,6.029,13.3035,4.60092,2470.693,2023-4-16T09:11:36Z
2023-04-16T07:11:42Z,42.805,6.029,13.3033,4.60099,2470.754,2023-4-16T09:14:39Z
2023-04-16T07:14:45Z,42.805,6.029,13.3030,4.60094,2470.693,2023-4-16T09:17:42Z
2023-04-16T07:17:48Z,42.805,6.029,13.3029,4.60100,2470.717,2023-4-16T09:20:45Z
2023-04-16T07:20:51Z,42.805,6.029,13.3039,4.60110,2470.693,2023-4-16T09:23:49Z
2023-04-16T07:23:54Z,42.805,6.029,13.3035,4.60086,2470.717,2023-4-16T09:26:52Z
2023-04-16T07:26:57Z,42.805,6.029,13.3034,4.60089,2470.693,2023-4-16T09:29:55Z
2023-04-16T07:30:01Z,42.805,6.029,13.3033,4.60095,2470.707,2023-4-16T09:32:58Z
2023-04-16T07:33:04Z,42.805,6.029,13.3029,4.60155,2470.67,2023-4-16T09:36:01Z
2023-04-16T07:36:07Z,42.805,6.029,13.3031,4.60195,2470.693,2023-4-16T09:39:04Z
2023-04-16T07:39:10Z,42.805,6.029,13.3033,4.60200,2470.707,2023-4-16T09:42:07Z
2023-04-16T07:42:13Z,42.805,6.029,13.3024,4.60157,2470.684,2023-4-16T09:45:10Z
2023-04-16T07:45:16Z,42.805,6.029,13.3030,4.60112,2470.707,2023-4-16T09:48:13Z
2023-04-16T07:48:19Z,42.805,6.029,13.3025,4.60125,2470.67,2023-4-16T09:51:16Z
2023-04-16T07:51:22Z,42.805,6.029,13.3023,4.60126,2470.646,2023-4-16T09:54:19Z
2023-04-16T07:54:25Z,42.805,6.029,13.3026,4.60114,2470.67,2023-4-16T09:57:22Z
2023-04-16T07:57:28Z,42.805,6.029,13.3023,4.60111,2470.624,2023-4-16T10:00:26Z
2023-04-16T08:00:31Z,42.805,6.029,13.3026,4.60127,2470.67,2023-4-16T10:03:29Z
2023-04-16T08:03:34Z,42.805,6.029,13.3029,4.60181,2470.637,2023-4-16T10:06:32Z
2023-04-16T08:06:37Z,42.805,6.029,13.3025,4.60162,2470.637,2023-4-16T10:09:35Z
2023-04-16T08:09:41Z,42.805,6.029,13.3025,4.60175,2470.661,2023-4-16T10:12:38Z
2023-04-16T08:12:44Z,42.805,6.029,13.3024,4.60182,2470.684,2023-4-16T10:15:41Z
2023-04-16T08:15:47Z,42.805,6.029,13.3024,4.60205,2470.646,2023-4-16T10:18:44Z
2023-04-16T08:18:50Z,42.805,6.029,13.3024,4.60174,2470.624,2023-4-16T10:21:47Z
2023-04-16T08:21:53Z,42.805,6.029,13.3024,4.60173,2470.624,2023-4-16T10:24:50Z
2023-04-16T08:24:56Z,42.805,6.029,13.3023,4.60150,2470.637,2023-4-16T10:27:53Z
2023-04-16T08:27:59Z,42.805,6.029,13.3024,4.60131,2470.624,2023-4-16T10:30:56Z
2023-04-16T08:31:02Z,42.805,6.029,13.3023,4.60142,2470.624,2023-4-16T10:33:59Z
2023-04-16T08:34:05Z,42.805,6.029,13.3025,4.60180,2470.646,2023-4-16T10:37:03Z
2023-04-16T08:37:08Z,42.805,6.029,13.3026,4.60127,2470.624,2023-4-16T10:40:06Z
2023-04-16T08:40:11Z,42.805,6.029,13.3022,4.60156,2470.646,2023-4-16T10:43:09Z
2023-04-16T08:43:15Z,42.805,6.029,13.3026,4.60174,2470.591,2023-4-16T10:46:12Z
2023-04-16T08:46:18Z,42.805,6.029,13.3019,4.60179,2470.624,2023-4-16T10:49:15Z
2023-04-16T08:49:21Z,42.805,6.029,13.3022,4.60194,2470.624,2023-4-16T10:52:18Z
2023-04-16T08:52:24Z,42.805,6.029,13.3022,4.60163,2470.637,2023-4-16T10:55:21Z
2023-04-16T08:55:27Z,42.805,6.029,13.3025,4.60173,2470.637,2023-4-16T10:58:24Z
2023-04-16T08:58:30Z,42.805,6.029,13.3026,4.60183,2470.577,2023-4-16T11:01:27Z
2023-04-16T09:01:33Z,42.805,6.029,13.3031,4.60151,2470.624,2023-4-16T11:04:30Z
2023-04-16T09:04:36Z,42.805,6.029,13.3031,4.60165,2470.6,2023-4-16T11:07:33Z
2023-04-16T09:07:39Z,42.805,6.029,13.3024,4.60175,2470.624,2023-4-16T11:10:37Z
2023-04-16T09:10:42Z,42.805,6.029,13.3027,4.60170,2470.614,2023-4-16T11:13:40Z
2023-04-16T09:13:45Z,42.805,6.029,13.3029,4.60178,2470.624,2023-4-16T11:16:43Z
2023-04-16T09:16:48Z,42.805,6.029,13.3028,4.60154,2470.624,2023-4-16T11:19:46Z
2023-04-16T09:19:52Z,42.805,6.029,13.3023,4.60197,2470.614,2023-4-16T11:22:49Z
2023-04-16T09:22:55Z,42.805,6.029,13.3024,4.60170,2470.614,2023-4-16T11:25:52Z
2023-04-16T09:25:58Z,42.805,6.029,13.3024,4.60185,2470.577,2023-4-16T11:28:55Z
2023-04-16T09:29:01Z,42.805,6.029,13.3024,4.60148,2470.6,2023-4-16T11:31:58Z
2023-04-16T09:32:04Z,42.805,6.029,13.3021,4.60150,2470.577,2023-4-16T11:35:01Z
2023-04-16T09:35:07Z,42.805,6.029,13.3021,4.60125,2470.6,2023-4-16T11:38:04Z
2023-04-16T09:38:10Z,42.805,6.029,13.3024,4.60136,2470.553,2023-4-16T11:41:07Z
2023-04-16T09:41:13Z,42.805,6.029,13.3024,4.60096,2470.624,2023-4-16T11:44:10Z
2023-04-16T09:44:16Z,42.805,6.029,13.3021,4.60115,2470.577,2023-4-16T11:47:14Z
2023-04-16T09:47:19Z,42.805,6.029,13.3020,4.60134,2470.591,2023-4-16T11:50:17Z
2023-04-16T09:50:22Z,42.805,6.029,13.3025,4.60126,2470.577,2023-4-16T11:53:20Z
2023-04-16T09:53:25Z,42.805,6.029,13.3022,4.60119,2470.591,2023-4-16T11:56:23Z
2023-04-16T09:56:29Z,42.805,6.029,13.3020,4.60112,2470.567,2023-4-16T11:59:26Z
2023-04-16T09:59:32Z,42.805,6.029,13.3023,4.60100,2470.577,2023-4-16T12:02:29Z
2023-04-16T10:02:35Z,42.805,6.029,13.3026,4.60094,2470.553,2023-4-16T12:05:32Z
2023-04-16T10:05:38Z,42.805,6.029,13.3024,4.60097,2470.567,2023-4-16T12:08:35Z
2023-04-16T10:08:41Z,42.805,6.029,13.3023,4.60094,2470.591,2023-4-16T12:11:38Z
2023-04-16T10:11:44Z,42.805,6.029,13.3026,4.60094,2470.591,2023-4-16T12:14:41Z
2023-04-16T10:14:47Z,42.805,6.029,13.3020,4.60091,2470.53,2023-4-16T12:17:44Z
2023-04-16T10:17:50Z,42.805,6.029,13.3023,4.60089,2470.591,2023-4-16T12:20:47Z
2023-04-16T10:20:53Z,42.805,6.029,13.3023,4.60089,2470.553,2023-4-16T12:23:51Z
2023-04-16T10:23:56Z,42.805,6.029,13.3022,4.60087,2470.577,2023-4-16T12:26:54Z
2023-04-16T10:26:59Z,42.805,6.029,13.3021,4.60085,2470.53,2023-4-16T12:29:57Z
2023-04-16T10:30:02Z,42.805,6.029,13.3024,4.60089,2470.53,2023-4-16T12:33:00Z
2023-04-16T10:33:06Z,42.805,6.029,13.3021,4.60091,2470.577,2023-4-16T12:36:03Z
2023-04-16T10:36:09Z,42.805,6.029,13.3022,4.60086,2470.553,2023-4-16T12:39:06Z
2023-04-16T10:39:12Z,42.805,6.029,13.3022,4.60089,2470.577,2023-4-16T12:42:09Z
2023-04-16T10:42:15Z,42.805,6.029,13.3024,4.60096,2470.539,2023-4-16T12:45:12Z
2023-04-16T10:45:18Z,42.805,6.029,13.3026,4.60102,2470.553,2023-4-16T12:48:15Z
2023-04-16T10:48:21Z,42.805,6.029,13.3022,4.60082,2470.553,2023-4-16T12:51:18Z
2023-04-16T10:51:24Z,42.805,6.029,13.3024,4.60097,2470.577,2023-4-16T12:54:21Z
2023-04-16T10:54:27Z,42.805,6.029,13.3026,4.60097,2470.53,2023-4-16T12:57:24Z
2023-04-16T10:57:30Z,42.805,6.029,13.3024,4.60084,2470.567,2023-4-16T13:00:28Z
2023-04-16T11:00:33Z,42.805,6.029,13.3023,4.60089,2470.52,2023-4-16T13:03:31Z
2023-04-16T11:03:36Z,42.805,6.029,13.3024,4.60087,2470.53,2023-4-16T13:06:34Z
2023-04-16T11:06:39Z,42.805,6.029,13.3022,4.60092,2470.553,2023-4-16T13:09:37Z
2023-04-16T11:09:43Z,42.805,6.029,13.3021,4.60084,2470.52,2023-4-16T13:12:40Z
2023-04-16T11:12:46Z,42.805,6.029,13.3019,4.60087,2470.53,2023-4-16T13:15:43Z
2023-04-16T11:15:49Z,42.805,6.029,13.3023,4.60087,2470.53,2023-4-16T13:18:46Z
2023-04-16T11:18:52Z,42.805,6.029,13.3022,4.60081,2470.567,2023-4-16T13:21:49Z
2023-04-16T11:21:55Z,42.805,6.029,13.3022,4.60085,2470.544,2023-4-16T13:24:52Z
2023-04-16T11:24:58Z,42.805,6.029,13.3021,4.60088,2470.53,2023-4-16T13:27:55Z
2023-04-16T11:28:01Z,42.805,6.029,13.3024,4.60088,2470.483,2023-4-16T13:30:58Z
2023-04-16T11:31:04Z,42.805,6.029,13.3023,4.60084,2470.507,2023-4-16T13:34:02Z
2023-04-16T11:34:07Z,42.805,6.029,13.3024,4.60077,2470.507,2023-4-16T13:37:05Z
2023-04-16T11:37:10Z,42.805,6.029,13.3024,4.60086,2470.567,2023-4-16T13:40:08Z
2023-04-16T11:40:13Z,42.805,6.029,13.3024,4.60093,2470.52,2023-4-16T13:43:11Z
2023-04-16T11:43:16Z,42.805,6.029,13.3021,4.60094,2470.507,2023-4-16T13:46:14Z
2023-04-16T11:46:20Z,42.805,6.029,13.3021,4.60079,2470.507,2023-4-16T13:49:17Z
2023-04-16T11:49:23Z,42.805,6.029,13.3022,4.60081,2470.567,2023-4-16T13:52:20Z
2023-04-16T11:52:26Z,42.805,6.029,13.3021,4.60082,2470.52,2023-4-16T13:55:23Z
2023-04-16T11:55:29Z,42.805,6.029,13.3017,4.60102,2470.53,2023-4-16T13:58:26Z
2023-04-16T11:58:32Z,42.805,6.029,13.3024,4.60099,2470.544,2023-4-16T14:01:29Z
2023-04-16T12:01:35Z,42.805,6.029,13.3023,4.60089,2470.507,2023-4-16T14:04:32Z
2023-04-16T12:04:38Z,42.805,6.029,13.3021,4.60095,2470.516,2023-4-16T14:07:35Z
2023-04-16T12:07:41Z,42.805,6.029,13.3026,4.60094,2470.53,2023-4-16T14:10:39Z
2023-04-16T12:10:44Z,42.805,6.029,13.3022,4.60097,2470.53,2023-4-16T14:13:42Z
2023-04-16T12:13:47Z,42.805,6.029,13.3022,4.60099,2470.483,2023-4-16T14:16:45Z
2023-04-16T12:16:50Z,42.805,6.029,13.3024,4.60097,2470.544,2023-4-16T14:19:48Z
2023-04-16T12:19:54Z,42.805,6.029,13.3024,4.60085,2470.507,2023-4-16T14:22:51Z
2023-04-16T12:22:57Z,42.805,6.029,13.3025,4.60093,2470.544,2023-4-16T14:25:54Z
2023-04-16T12:26:00Z,42.805,6.029,13.3023,4.60084,2470.53,2023-4-16T14:28:57Z
2023-04-16T12:29:03Z,42.805,6.029,13.3024,4.60086,2470.53,2023-4-16T14:32:00Z
2023-04-16T12:32:07Z,42.805,6.029,13.3025,4.60089,2470.507,2023-4-16T14:35:05Z
2023-04-16T12:35:10Z,42.805,6.029,13.3024,4.60086,2470.53,2023-4-16T14:38:08Z
2023-04-16T12:38:13Z,42.805,6.029,13.3024,4.60097,2470.53,2023-4-16T14:41:11Z
2023-04-16T12:41:17Z,42.805,6.029,13.3021,4.60088,2470.53,2023-4-16T14:44:14Z
2023-04-16T12:44:20Z,42.805,6.029,13.3024,4.60094,2470.52,2023-4-16T14:47:17Z
2023-04-16T12:47:23Z,42.805,6.029,13.3019,4.60088,2470.553,2023-4-16T14:50:20Z
2023-04-16T12:50:26Z,42.805,6.029,13.3024,4.60090,2470.53,2023-4-16T14:53:23Z
2023-04-16T12:53:29Z,42.805,6.029,13.3024,4.60079,2470.507,2023-4-16T14:56:26Z
2023-04-16T12:56:32Z,42.805,6.029,13.3024,4.60079,2470.507,2023-4-16T14:59:29Z
2023-04-16T12:59:35Z,42.805,6.029,13.3022,4.60079,2470.53,2023-4-16T15:02:32Z
2023-04-16T13:02:38Z,42.805,6.029,13.3027,4.60088,2470.53,2023-4-16T15:05:36Z
2023-04-16T13:05:41Z,42.805,6.029,13.3026,4.60089,2470.507,2023-4-16T15:08:39Z
2023-04-16T13:08:45Z,42.805,6.029,13.3024,4.60097,2470.577,2023-4-16T15:11:42Z
2023-04-16T13:11:48Z,42.805,6.029,13.3024,4.60084,2470.544,2023-4-16T15:14:45Z
2023-04-16T13:14:51Z,42.805,6.029,13.3024,4.60088,2470.52,2023-4-16T15:17:48Z
2023-04-16T13:17:54Z,42.805,6.029,13.3021,4.60087,2470.53,2023-4-16T15:20:51Z
2023-04-16T13:28:08Z,42.805,6.029,13.3024,4.60088,2470.52,2023-4-16T15:31:05Z
2023-04-16T13:31:11Z,42.805,6.029,13.3024,4.60093,2470.567,2023-4-16T15:34:08Z
2023-04-16T13:34:14Z,42.805,6.029,13.3026,4.60089,2470.553,2023-4-16T15:37:11Z
2023-04-16T13:37:17Z,42.805,6.029,13.3024,4.60081,2470.567,2023-4-16T15:40:14Z
2023-04-16T13:40:20Z,42.805,6.029,13.3019,4.60078,2470.544,2023-4-16T15:43:17Z
2023-04-16T13:43:23Z,42.805,6.029,13.3021,4.60078,2470.567,2023-4-16T15:46:21Z
2023-04-16T13:46:26Z,42.805,6.029,13.3023,4.60079,2470.544,2023-4-16T15:49:24Z
2023-04-16T13:49:29Z,42.805,6.029,13.3026,4.60084,2470.53,2023-4-16T15:52:27Z
2023-04-16T13:52:32Z,42.805,6.029,13.3024,4.60079,2470.567,2023-4-16T15:55:30Z
2023-04-16T13:55:35Z,42.805,6.029,13.3022,4.60082,2470.516,2023-4-16T15:58:33Z
2023-04-16T13:58:39Z,42.805,6.029,13.3022,4.60078,2470.544,2023-4-16T16:01:36Z
2023-04-16T14:01:42Z,42.805,6.029,13.3021,4.60077,2470.577,2023-4-16T16:04:39Z
2023-04-16T14:04:45Z,42.805,6.029,13.3024,4.60081,2470.553,2023-4-16T16:07:42Z
2023-04-16T14:07:48Z,42.805,6.029,13.3025,4.60077,2470.567,2023-4-16T16:10:45Z
2023-04-16T14:10:51Z,42.805,6.029,13.3024,4.60077,2470.53,2023-4-16T16:13:48Z
2023-04-16T14:13:54Z,42.805,6.029,13.3026,4.60079,2470.53,2023-4-16T16:16:51Z
2023-04-16T14:16:57Z,42.805,6.029,13.3026,4.60094,2470.577,2023-4-16T16:19:54Z
2023-04-16T14:20:00Z,42.805,6.029,13.3025,4.60079,2470.567,2023-4-16T16:22:58Z
2023-04-16T14:23:03Z,42.805,6.029,13.3024,4.60078,2470.53,2023-4-16T16:26:01Z
2023-04-16T14:26:06Z,42.805,6.029,13.3023,4.60079,2470.539,2023-4-16T16:29:04Z
2023-04-16T14:29:09Z,42.805,6.029,13.3024,4.60088,2470.567,2023-4-16T16:32:07Z
2023-04-16T14:32:14Z,42.805,6.029,13.3027,4.60076,2470.53,2023-4-16T16:35:11Z
2023-04-16T14:35:17Z,42.805,6.029,13.3022,4.60078,2470.567,2023-4-16T16:38:15Z
2023-04-16T14:38:20Z,42.805,6.029,13.3023,4.60079,2470.591,2023-4-16T16:41:18Z
2023-04-16T14:41:23Z,42.805,6.029,13.3024,4.60076,2470.553,2023-4-16T16:44:21Z
2023-04-16T14:44:26Z,42.805,6.029,13.3025,4.60079,2470.591,2023-4-16T16:47:24Z
2023-04-16T14:47:29Z,42.805,6.029,13.3025,4.60080,2470.591,2023-4-16T16:50:27Z
2023-04-16T14:50:33Z,42.805,6.029,13.3021,4.60096,2470.553,2023-4-16T16:53:30Z
2023-04-16T14:53:36Z,42.805,6.029,13.3024,4.60079,2470.539,2023-4-16T16:56:33Z
2023-04-16T14:56:39Z,42.805,6.029,13.3022,4.60079,2470.567,2023-4-16T16:59:36Z
2023-04-16T14:59:42Z,42.805,6.029,13.3024,4.60078,2470.591,2023-4-16T17:02:39Z
2023-04-16T15:02:45Z,42.805,6.029,13.3024,4.60079,2470.553,2023-4-16T17:05:42Z
2023-04-16T15:05:48Z,42.805,6.029,13.3028,4.60079,2470.567,2023-4-16T17:08:45Z
2023-04-16T15:08:51Z,42.805,6.029,13.3026,4.60104,2470.553,2023-4-16T17:11:49Z
2023-04-16T15:11:54Z,42.805,6.029,13.3025,4.60078,2470.567,2023-4-16T17:14:52Z
2023-04-16T15:14:57Z,42.805,6.029,13.3024,4.60075,2470.577,2023-4-16T17:17:55Z
2023-04-16T15:18:00Z,42.805,6.029,13.3024,4.60075,2470.577,2023-4-16T17:20:58Z
2023-04-16T15:21:03Z,42.805,6.029,13.3024,4.60077,2470.577,2023-4-16T17:24:01Z